EW6254 Weather Reports


time (UTC)temp
C
wind
direction
speed
KPH
gust
KPH
rain 1hr
cm
rain 24hr
cm
rain mn
cm
humidity
%
barometer
mb
20171123111927 1 309 0.0 0.0 0.00 0.00 0.00 66 1016.8
20171123110943 1 304 0.0 0.0 0.00 0.00 0.00 66 1016.8
20171123105916 1 304 0.0 0.0 0.00 0.00 0.00 65 1016.8
20171123104934 1 304 0.0 0.0 0.00 0.00 0.00 65 1016.8
20171123103930 1 306 0.0 0.0 0.00 0.00 0.00 64 1016.9
20171123102942 1 306 0.0 0.0 0.00 0.00 0.00 64 1016.7
20171123102004 1 306 0.0 0.0 0.00 0.00 0.00 64 1016.7
20171123100941 1 305 0.0 0.0 0.00 0.00 0.00 64 1016.7
20171123095949 1 284 0.0 0.0 0.00 0.00 0.00 64 1016.6
20171123094942 1 244 0.0 0.0 0.00 0.00 0.00 63 1016.5
20171123093956 1 226 0.0 0.0 0.00 0.00 0.00 63 1016.6
20171123092928 1 226 0.0 0.0 0.00 0.00 0.00 63 1016.5
20171123090921 1 226 0.0 0.0 0.00 0.00 0.00 63 1016.9
20171123085902 1 227 0.0 0.0 0.00 0.00 0.00 63 1016.9
20171123084847 1 226 0.0 0.0 0.00 0.00 0.00 63 1016.7
20171123083844 1 226 0.0 0.0 0.00 0.00 0.00 63 1016.7
20171123082821 1 227 0.0 0.0 0.00 0.00 0.00 63 1016.8
20171123075440 0 205 0.0 0.0 0.00 0.00 0.00 62 1016.5
20171123074434 0 204 0.0 0.0 0.00 0.00 0.00 62 1016.6
20171123073414 0 202 0.0 0.0 0.00 0.00 0.00 61 1016.6
20171123072338 0 202 0.0 0.0 0.00 0.00 0.00 61 1016.7
20171123071349 1 200 0.0 0.0 0.00 0.00 0.00 60 1016.7
20171123070319 1 197 0.0 0.0 0.00 0.00 0.00 60 1016.9
20171123065307 1 204 0.0 0.0 0.00 0.00 0.00 59 1017.0
20171123064317 1 194 0.0 0.0 0.00 0.00 0.00 59 1017.1
20171123063338 1 205 0.0 0.0 0.00 0.00 0.00 59 1017.2
20171123062328 1 201 0.0 6.4 0.00 0.00 0.00 58 1017.2
20171123061335 1 199 0.0 0.0 0.00 0.00 0.00 58 1017.4
20171123060301 1 192 0.0 4.8 0.00 0.00 0.00 58 1017.5
20171123055244 1 173 0.0 0.0 0.00 0.00 0.00 57 1017.8
20171123054235 1 198 0.0 0.0 0.00 0.00 0.00 57 1017.7
20171123053253 1 211 0.0 8.0 0.00 0.00 0.00 56 1017.8
20171123052248 1 225 1.6 0.0 0.00 0.00 0.00 56 1017.8
20171123051300 1 204 0.0 9.7 0.00 0.00 0.00 56 1017.8
20171123050312 1 204 0.0 0.0 0.00 0.00 0.00 56 1017.9
20171123045236 1 187 0.0 9.7 0.00 0.00 0.00 56 1018.0
20171123044205 1 197 0.0 8.0 0.00 0.00 0.00 56 1018.2
20171123043227 1 204 0.0 8.0 0.00 0.00 0.00 56 1018.3
20171123042247 1 185 0.0 0.0 0.00 0.00 0.00 55 1018.3
20171123041251 2 178 0.0 0.0 0.00 0.00 0.00 55 1018.6
20171123040255 2 173 0.0 0.0 0.00 0.00 0.00 54 1018.7
20171123035305 2 182 0.0 1.6 0.00 0.00 0.00 54 1018.8
20171123034301 2 182 0.0 0.0 0.00 0.00 0.00 54 1018.9
20171123033304 2 168 0.0 9.7 0.00 0.00 0.00 53 1018.8
20171123032311 2 207 1.6 0.0 0.00 0.00 0.00 53 1018.9
20171123031315 2 178 1.6 3.2 0.00 0.00 0.00 53 1018.8
20171123030326 2 196 1.6 9.7 0.00 0.00 0.00 53 1019.0
20171123025252 2 209 1.6 0.0 0.00 0.00 0.00 52 1019.2
20171123024237 2 219 0.0 0.0 0.00 0.00 0.00 52 1019.4
20171123023234 2 172 0.0 8.0 0.00 0.00 0.00 52 1019.6
20171123022234 2 134 0.0 8.0 0.00 0.00 0.00 51 1019.3
20171123021201 2 219 1.6 12.9 0.00 0.00 0.00 51 1019.5
20171123020144 2 189 1.6 9.7 0.00 0.00 0.00 51 1019.9
20171123015150 2 178 0.0 0.0 0.00 0.00 0.00 50 1020.1
20171123014210 2 192 1.6 12.9 0.00 0.00 0.00 50 1020.4
20171123013207 2 193 4.8 12.9 0.00 0.00 0.00 50 1020.5
20171123012220 3 205 0.0 12.9 0.00 0.00 0.00 49 1020.7
20171123011209 3 153 1.6 14.5 0.00 0.00 0.00 49 1020.8
20171123010131 3 167 0.0 0.0 0.00 0.00 0.00 49 1021.0
20171123005109 3 198 0.0 8.0 0.00 0.00 0.00 49 1021.0
20171123004050 3 193 0.0 3.2 0.00 0.00 0.00 48 1021.2
20171123003056 3 200 0.0 0.0 0.00 0.00 0.00 48 1021.3
20171123002111 3 201 3.2 11.3 0.00 0.00 0.00 47 1021.4
20171123001038 3 193 0.0 11.3 0.00 0.00 0.00 47 1021.5
20171123000011 3 213 0.0 0.0 0.00 0.00 0.00 47 1021.4
20171122235022 3 210 0.0 0.0 0.00 0.00 0.00 46 1021.6
20171122234017 3 223 1.6 9.7 0.00 0.00 0.00 46 1021.7
20171122233026 3 112 0.0 9.7 0.00 0.00 0.00 46 1021.6
20171122232047 3 173 0.0 8.0 0.00 0.00 0.00 45 1021.5
20171122231031 3 178 0.0 6.4 0.00 0.00 0.00 45 1021.6
20171122230035 3 0 4.8 17.7 0.00 0.00 0.00 44 1021.7
20171122223944 4 0 3.2 12.9 0.00 0.00 0.00 43 1022.0
20171122223001 4 213 4.8 22.5 0.00 0.00 0.00 42 1022.2
20171122221926 4 218 8.0 22.5 0.00 0.00 0.00 42 1022.4
20171122220852 4 195 6.4 20.9 0.00 0.00 0.00 42 1022.5
20171122215911 4 217 6.4 20.9 0.00 0.00 0.00 42 1022.6
20171122214853 4 177 8.0 24.1 0.00 0.00 0.00 42 1022.3
20171122213830 4 206 6.4 24.1 0.00 0.00 0.00 41 1022.2
20171122212759 4 238 3.2 17.7 0.00 0.00 0.00 41 1022.6
20171122211819 4 155 9.7 0.0 0.00 0.00 0.00 42 1022.5
20171122210803 3 194 6.4 20.9 0.00 0.00 0.00 41 1022.6
20171122205754 3 163 9.7 22.5 0.00 0.00 0.00 42 1022.6
20171122204802 3 180 8.0 22.5 0.00 0.00 0.00 42 1022.8
20171122203747 3 160 6.4 20.9 0.00 0.00 0.00 44 1022.8
20171122202748 2 203 4.8 20.9 0.00 0.00 0.00 44 1023.0
20171122201806 2 252 8.0 22.5 0.00 0.00 0.00 44 1023.5
20171122195726 2 192 6.4 22.5 0.00 0.00 0.00 45 1024.1
20171122194739 2 204 4.8 16.1 0.00 0.00 0.00 47 1024.2
20171122193755 1 188 4.8 17.7 0.00 0.00 0.00 48 1024.6
20171122192722 1 200 3.2 24.1 0.00 0.00 0.00 48 1024.5
20171122191726 1 227 8.0 24.1 0.00 0.00 0.00 48 1024.7
20171122190733 1 182 6.4 20.9 0.00 0.00 0.00 48 1025.3
20171122184614 1 227 4.8 16.1 0.00 0.00 0.00 49 1026.5
20171122183551 0 212 4.8 16.1 0.00 0.00 0.00 49 1026.8
20171122182536 0 212 4.8 19.3 0.00 0.00 0.00 49 1027.2
20171122180340 0 202 9.7 16.1 0.00 0.00 0.00 48 1027.5
20171122175350 0 216 6.4 22.5 0.00 0.00 0.00 50 1027.7
20171122174348 0 159 4.8 22.5 0.00 0.00 0.00 50 1028.1
20171122173410 0 156 6.4 16.1 0.00 0.00 0.00 51 1027.9
20171122172345 -1 250 8.0 25.7 0.00 0.00 0.00 52 1028.0
20171122171317 -1 190 9.7 25.7 0.00 0.00 0.00 53 1028.3
20171122170240 -1 174 9.7 24.1 0.00 0.00 0.00 53 1028.5
20171122165230 -1 219 4.8 20.9 0.00 0.00 0.00 54 1029.0
20171122164244 -1 165 4.8 20.9 0.00 0.00 0.00 56 1029.5
20171122163305 -2 205 3.2 19.3 0.00 0.00 0.00 57 1029.9
20171122162253 -2 198 1.6 6.4 0.00 0.00 0.00 58 1030.1
20171122161225 -2 209 3.2 17.7 0.00 0.00 0.00 60 1029.9
20171122160154 -3 223 1.6 17.7 0.00 0.00 0.00 63 1030.4
20171122155119 -3 224 1.6 12.9 0.00 0.00 0.00 64 1030.4
20171122154057 -4 223 0.0 8.0 0.00 0.00 0.00 65 1030.6
20171122153032 -5 207 0.0 11.3 0.00 0.00 0.00 67 1030.5
20171122152003 -5 165 0.0 9.7 0.00 0.00 0.00 68 1030.5
20171122151024 -5 155 0.0 0.0 0.00 0.00 0.00 70 1030.4
20171122144845 -6 217 0.0 0.0 0.00 0.00 0.00 75 1030.5
20171122142717 -7 158 0.0 0.0 0.00 0.00 0.00 78 1030.6
20171122141731 -7 178 0.0 0.0 0.00 0.00 0.00 78 1030.5
20171122140750 -7 197 0.0 0.0 0.00 0.00 0.00 79 1030.7
20171122135727 -7 261 0.0 0.0 0.00 0.00 0.00 79 1030.8
20171122134704 -8 264 0.0 0.0 0.00 0.00 0.00 79 1030.9
20171122133705 -8 299 0.0 0.0 0.00 0.00 0.00 79 1030.7
20171122132721 -8 317 0.0 0.0 0.00 0.00 0.00 78 1030.6
20171122131735 -8 318 0.0 0.0 0.00 0.00 0.00 78 1030.7
20171122130721 -8 318 0.0 0.0 0.00 0.00 0.00 78 1030.6
20171122124642 -8 318 0.0 0.0 0.00 0.00 0.00 78 1030.5
20171122123622 -8 319 0.0 0.0 0.00 0.00 0.00 78 1030.5
20171122122557 -8 320 0.0 0.0 0.00 0.00 0.00 78 1030.5
20171122121615 -8 320 0.0 0.0 0.00 0.00 0.00 77 1030.5
20171122120540 -8 320 0.0 0.0 0.00 0.00 0.00 78 1030.5
20171122115532 -8 320 0.0 0.0 0.00 0.00 0.00 78 1030.4
20171122114504 -8 320 0.0 0.0 0.00 0.00 0.00 77 1030.4
20171122113517 -8 321 0.0 0.0 0.00 0.00 0.00 77 1030.3